SCP
0 0 0 0 0 0 0 0 0 0 0 0 0 0 0 0 0 0 0 0 0 0 0 0 0 0 0 0 0 0 0 0 0 0 0 0 0 0 0 0 0 0 0 0
0 0 0 0 0 0 0 0 0 0 0 0 0 0 0 0 0 0 0 0 0 0 0 0 0 0 0 0 0 0 0 0 0 0 0 0 0 0 0 0 0 0 0 0
0 0 0 0 0 0 0 0 0 0 0 0 0 0 0 0 0 0 0 0 0 0 0 0 0 0 0 0 0 0 0 0 0 0 0 0 0 0 0 0 0 0 0 0
0 0 0 0 0 0 0 0 0 0 0 0 0 0 0 0 0 0 0 0 0 0 0 0 0 0 0 0 0 0 0 0 0 0 0 0 0 0 0 0 0 0 0 0
0 0 0 0 0 0 0 0 0 0 0 0 0 0 0 0 0 0 0 0 0 0 0 0 0 0 0 0 0 0 0 0 0 0 0 0 0 0 0 0 0 0 0 0
0 0 0 0 0 0 0 0 0 0 0 0 0 0 0 0 0 0 0 0 0 0 0 0 0 0 0 0 0 0 0 0 0 0 0 0 0 0 0 0 0 0 0 0
0 0 0 0 0 0 0 0 0 0 0 0 0 0 0 0 0 0 0 0 0 0 0 0 0 0 0 0 0 0 0 0 0 0 0 0 0 0 0 0 0 0 0 0
0 0 0 0 0 0 0 0 0 0 0 0 0 0 0 0 0 0 0 0 0 0 0 0 0 0 0 0 0 0 0 0 0 0 0 0 0 0 0 0 0 0 0 0
0 0 0 0 0 0 0 0 0 0 0 0 0 0 0 0 0 0 0 0 0 0 0 0 0 0 0 0 0 0 0 0 0 0 0 0 0 0 0 0 0 0 0 0
0 0 0 0 0 0 0 0 0 0 0 0 0 0 0 0 0 0 0 0 0 0 0 0 0 0 0 0 0 0 0 0 0 0 0 0 0 0 0 0 0 0 0 0
0 0 0 0 0 0 0 0 0 0 0 0 0 0 0 0 0 0 0 0 0 0 0 0 0 0 0 0 0 0 0 0 0 0 0 0 0 0 0 0 0 0 0 0
0 0 0 0 0 0 0 0 0 0 0 0 0 0 0 0 0 0 0 0 0 0 0 0 0 0 0 0 0 0 0 0 0 0 0 0 0 0 0 0 0 0 0 0
0 0 0 0 0 0 0 0 0 0 0 0 0 0 0 0 0 0 0 0 0 0 0 0 0 0 0 0 0 0 0 0 0 0 0 0 0 0 0 0 0 0 0 0
0 0 0 0 0 0 0 0 0 0 0 0 0 0 0 0 0 0 0 0 0 0 0 0 0 0 0 0 0 0 0 0 0 0 0 0 0 0 0 0 0 0 0 0
0 0 0 0 0 0 0 0 0 0 0 0 0 0 0 0 0 0 0 0 0 0 0 0 0 0 0 0 0 0 0 0 0 0 0 0 0 0 0 0 0 0 0 0
0 0 0 0 0 0 0 0 0 0 0 0 0 0 0 0 0 0 0 0 0 0 0 0 0 0 0 0 0 0 0 0 0 0 0 0 0 0 0 0 0 0 0 0
0 0 0 0 0 0 0 0 0 0 0 0 0 0 0 0 0 0 0 0 0 0 0 0 0 0 0 0 0 0 0 0 0 0 0 0 0 0 0 0 0 0 0 0
0 0 0 0 0 0 0 0 0 0 0 0 0 0 0 0 0 0 0 0 0 0 0 0 0 0 0 0 0 0 0 0 0 0 0 0 0 0 0 0 0 0 0 0
0 0 0 0 0 0 0 0 0 0 0 0 0 0 0 0 0 0 0 0 0 0 0 0 0 0 0 0 0 0 0 0 0 0 0 0 0 0 0 0 0 0 0 0
0 0 0 0 0 0 0 0 0 0 0 0 0 0 0 0 0 0 0 0 0 0 0 0 0 0 0 0 0 0 0 0 0 0 0 0 0 0 0 0 0 0 0 0
0 0 0 0 0 0 0 0 0 0 0 0 0 0 0 0 0 0 0 0 0 0 0 0 0 0 0 0 0 0 0 0 0 0 0 0 0 0 0 0 0 0 0 0
0 0 0 0 0 0 0 0 0 0 0 0 0 0 0 0 0 0 0 0 0 0 0 0 0 0 0 0 0 0 0 0 0 0 0 0 0 0 0 0 0 0 0 0
0 0 0 0 0 0 0 -0 0 0 0 0 0 0 0 0 0 0 0 0 0 0 0 0 0 0 0 0 0 0 0 0 0 0 0 0 0 0 0 0 0 0 0 0
0 0 0 0 0 0 0 0 -0 0 0 0 0 0 0 0 0 0 0 0 0 0 0 0 0 0 0 0 0 0 0 0 0 0 0 0 0 0 0 0 0 0 0 0
0 0 0 0 0 0 0 0 0 -0 0 0 0 0 0 0 0 0 0 0 0 0 0 0 0 0 0 0 0 0 0 0 0 0 0 0 0 0 0 0 0 0 0 0
0 0 0 0 0 0 0 0 0 -0 -0 0 0 0 0 0 0 0 0 0 0 0 0 0 0 0 0 0 0 0 0 0 0 0 0 0 0 0 0 0 0 0 0 0
0 0 0 0 0 0 0 0 0 -0 -0 -0 0 0 0 0 0 0 0 0 0 0 0 0 0 0 0 0 0 0 0 0 0 0 0 0 0 0 0 0 0 0 0 0
Wind_Speed
7 3 4 7 10 14 15 13 12 13 13 19 16 14 10 6 7 10 13 15 15 13 11 10 9 8 6 5 4 4 5 6 7 8 9 9 10 10 11 11 12 12 13 14
6 3 5 9 15 17 17 15 17 19 21 21 16 9 7 8 9 13 15 16 15 14 12 11 10 8 7 5 4 4 5 6 7 7 8 9 10 10 11 11 12 12 12 14
4 2 5 13 14 19 13 14 14 15 15 9 6 9 10 9 12 14 15 16 16 15 13 12 10 9 7 6 4 5 5 6 6 7 8 9 10 10 11 11 11 12 12 13
4 3 10 6 3 11 11 12 16 16 15 13 11 9 9 11 12 14 14 15 16 14 12 11 10 9 7 6 5 5 5 6 6 7 8 9 10 10 11 10 10 11 12 13
3 5 11 7 7 9 10 11 14 18 19 15 2 7 9 11 13 12 13 14 14 13 12 12 11 10 8 7 6 6 6 6 6 7 8 9 10 11 11 10 11 11 11 12
4 6 10 5 5 5 4 9 7 13 15 8 3 6 6 4 9 10 10 11 12 12 12 12 11 10 9 8 7 7 6 6 7 7 8 10 11 11 10 10 11 11 11 12
8 8 13 2 8 8 6 6 4 11 11 9 11 9 0 4 8 10 12 12 13 13 12 12 11 11 9 8 8 6 5 6 7 8 8 10 10 10 10 10 11 11 12 12
9 9 14 8 12 13 8 1 3 7 9 10 13 8 4 7 9 12 13 14 14 13 12 11 12 11 10 9 7 6 5 6 7 8 7 7 9 10 9 9 10 11 11 11
14 12 4 12 12 9 4 5 6 6 8 10 11 11 10 9 11 13 14 14 14 13 13 11 12 12 11 8 7 6 6 6 7 7 7 7 8 9 8 7 7 9 9 10
10 16 11 12 15 13 12 13 13 10 9 9 13 12 12 11 12 14 15 15 14 14 14 13 13 12 10 8 8 7 6 6 6 6 7 7 6 6 6 6 7 9 9 10
12 11 9 13 18 21 18 17 18 16 14 14 14 14 13 13 14 15 15 15 15 15 15 14 14 13 11 9 9 8 6 5 5 5 6 6 5 5 6 6 7 9 8 9
14 10 11 10 6 8 13 16 16 14 14 14 15 15 14 14 14 15 16 16 16 16 15 14 14 13 12 11 10 8 6 5 4 4 4 5 5 5 5 6 10 10 11 11
17 7 10 12 7 7 12 14 13 14 15 13 13 14 14 13 14 15 17 18 19 18 16 15 14 13 13 12 11 10 7 5 4 4 4 4 5 5 6 5 5 7 10 12
17 9 10 13 15 15 15 14 10 11 12 12 11 12 13 14 14 17 19 19 18 17 16 15 15 14 13 13 12 10 8 7 5 4 4 4 4 4 5 6 7 5 6 10
18 16 18 19 17 15 11 8 9 13 13 13 12 13 15 17 18 19 17 17 17 17 16 16 16 15 14 14 13 11 9 6 5 4 4 4 4 4 4 5 5 6 6 7
13 13 16 18 23 24 20 17 18 21 17 15 16 17 18 18 16 15 17 19 20 21 19 17 17 15 15 15 13 10 8 10 8 5 4 4 4 3 3 4 4 5 5 6
13 17 18 20 25 27 25 22 22 21 16 16 17 16 15 16 16 17 19 20 19 18 18 18 17 15 16 15 14 9 8 9 11 6 5 4 4 3 3 3 4 4 4 5
26 28 26 23 22 24 25 21 18 17 16 13 11 14 18 21 22 21 19 19 17 16 17 17 16 16 16 16 13 9 8 8 7 6 5 5 4 3 3 3 3 4 4 4
24 25 25 23 23 22 21 20 15 12 10 9 13 17 19 20 19 18 19 20 21 21 19 18 23 19 17 17 16 9 9 9 8 6 5 6 5 4 4 3 3 3 3 4
18 18 19 19 18 16 18 16 12 9 8 11 14 15 17 18 17 18 20 21 19 16 17 20 21 17 17 17 19 10 11 10 9 7 7 6 6 5 4 3 3 3 3 3
16 16 15 15 17 17 16 14 12 12 10 13 17 18 18 17 18 19 20 18 17 15 19 26 19 15 15 16 20 11 11 10 9 8 8 7 6 5 5 4 3 3 2 2
13 13 14 14 14 15 13 11 11 11 11 13 16 15 14 17 19 19 20 13 16 22 18 17 16 19 21 21 14 12 12 11 10 8 8 7 7 6 5 5 4 3 2 2
14 13 13 12 12 13 13 11 10 10 11 13 15 16 17 15 15 17 17 13 15 26 19 16 21 29 30 19 13 13 13 13 11 10 9 8 7 7 6 6 4 4 3 2
14 13 11 10 9 9 11 11 8 8 9 10 11 12 13 12 13 13 9 17 23 26 17 21 31 33 30 15 14 13 13 12 11 10 9 8 7 7 6 5 5 4 4 4
12 11 11 10 10 9 9 8 7 7 8 8 8 9 11 10 9 11 11 16 24 26 16 22 32 33 22 14 14 14 13 12 11 11 10 9 9 8 7 6 6 5 4 4
11 11 10 9 9 8 7 6 6 5 5 6 6 6 8 8 8 9 10 15 21 24 17 16 21 24 17 15 15 14 13 13 13 12 11 10 10 9 8 7 8 6 5 4
11 10 9 10 9 8 6 6 6 6 6 6 6 6 8 9 9 11 13 13 16 17 14 15 17 17 16 15 14 13 12 11 12 11 11 10 9 9 8 9 7 6 5 4
Wind_Direction
271 263 236 237 213 195 209 223 237 253 259 275 289 303 301 279 225 202 195 193 193 192 189 188 191 194 199 216 242 268 285 296 306 313 315 315 316 317 319 320 321 320 320 319
265 230 226 254 238 220 225 235 245 261 272 270 281 284 264 246 217 207 203 199 196 193 189 190 191 191 194 208 228 258 276 287 295 303 306 309 311 316 318 319 319 319 316 315
255 179 275 262 229 198 203 214 212 228 245 264 260 257 261 251 218 215 207 198 195 193 191 188 186 185 190 201 215 245 265 279 288 295 301 306 309 313 317 317 316 315 313 314
273 259 244 253 115 183 208 228 219 239 260 268 273 292 278 252 230 218 205 196 193 189 184 178 175 177 183 193 216 240 259 270 279 289 295 302 308 312 315 315 314 310 311 315
235 250 272 265 183 177 201 257 220 228 250 264 326 303 267 227 219 216 200 192 186 180 173 169 172 175 182 199 214 233 251 263 274 281 288 297 303 309 314 313 309 308 313 317
212 230 246 255 141 160 165 273 223 207 236 238 169 280 303 158 195 199 187 177 170 164 163 168 172 173 188 203 213 229 245 263 274 280 285 294 302 310 312 312 309 314 316 318
220 240 264 252 135 152 193 253 184 200 222 196 206 238 281 156 182 182 175 168 164 163 169 174 170 176 195 206 215 224 242 265 274 280 288 295 300 305 308 310 312 315 317 320
188 213 251 159 156 198 226 236 195 212 218 215 229 237 205 196 185 178 173 170 169 170 173 171 173 183 199 209 209 209 235 262 274 282 288 289 299 305 309 314 316 319 321 324
196 215 274 170 206 229 291 257 237 225 226 221 235 235 216 204 193 186 181 175 175 175 173 175 181 191 203 202 193 202 229 255 273 284 287 291 300 307 314 322 321 320 325 329
234 255 247 224 242 252 245 249 259 252 240 219 231 234 214 201 193 188 185 180 177 179 182 184 187 196 205 191 186 202 228 251 270 283 292 300 303 305 313 320 321 324 333 332
240 258 287 256 234 242 249 252 257 255 242 234 233 231 212 201 195 190 186 182 181 186 190 189 186 195 197 192 190 204 223 242 262 275 288 298 304 306 310 314 323 329 331 330
236 221 220 248 222 216 232 245 245 244 246 231 223 226 209 204 196 189 186 183 185 191 192 189 186 192 192 190 192 199 213 230 251 272 288 299 306 306 297 305 325 335 337 337
251 241 237 265 267 229 241 252 243 235 238 236 220 215 207 201 193 189 187 187 190 190 190 186 186 191 189 187 190 197 206 216 238 260 282 298 309 313 318 319 320 335 346 345
244 252 268 261 259 256 251 250 247 244 242 234 220 204 201 198 192 192 193 192 189 186 187 186 188 192 187 184 188 194 200 211 228 245 264 279 292 301 308 318 323 333 344 347
238 226 240 260 269 266 256 247 244 248 242 230 211 200 196 196 197 198 193 185 182 184 186 187 191 191 181 183 188 191 193 199 210 228 244 261 271 283 297 307 313 322 331 343
242 234 239 251 260 264 260 248 246 253 245 226 212 207 203 201 199 193 187 182 183 188 188 188 193 187 178 182 185 188 193 200 206 217 228 241 247 263 287 305 315 323 335 341
244 247 243 245 252 258 258 252 247 249 243 226 217 204 195 194 195 194 191 190 192 191 186 188 188 178 177 182 183 183 183 191 202 209 219 226 232 245 269 292 308 319 330 333
244 249 251 250 253 259 262 260 252 246 240 233 202 190 193 196 199 195 188 185 189 193 191 188 179 173 177 180 182 180 178 181 187 198 206 214 221 228 246 270 294 308 323 332
249 253 258 260 261 263 266 268 265 253 238 205 196 202 204 205 202 189 180 181 187 193 192 183 178 174 178 181 177 178 178 180 185 192 199 208 214 218 227 246 275 300 315 329
264 266 268 271 272 271 272 276 277 261 225 199 202 206 210 208 197 187 184 191 196 190 173 174 176 176 178 180 176 177 179 182 185 188 193 201 206 207 212 226 251 276 299 321
273 275 276 278 281 281 278 277 272 260 228 202 205 210 209 200 191 187 188 198 198 178 168 174 174 174 177 176 177 177 179 182 186 188 191 196 199 202 205 211 225 248 279 305
282 282 281 282 284 287 287 281 269 258 234 218 217 213 204 196 192 195 201 199 176 173 169 174 175 175 175 174 177 177 180 182 184 186 190 192 194 197 199 202 211 223 248 281
290 285 281 280 281 285 290 284 270 258 244 230 222 214 208 200 191 192 198 195 173 175 173 176 177 176 175 173 175 177 180 182 184 186 188 190 192 194 194 197 204 211 230 255
291 286 280 280 284 285 284 283 269 258 253 246 235 221 209 202 202 203 192 179 178 177 177 177 175 176 173 173 174 177 180 182 183 184 184 185 187 189 192 194 199 206 217 238
286 286 285 284 284 283 280 285 283 269 261 255 245 225 216 213 205 194 186 177 176 174 175 178 176 176 172 171 175 178 179 181 180 179 182 183 185 187 190 192 196 201 209 224
279 280 283 278 275 278 284 285 281 276 264 259 247 223 215 214 206 188 181 178 176 175 171 173 175 177 174 172 175 177 177 180 182 182 182 182 185 186 188 191 195 200 205 216
269 271 274 276 273 265 262 259 261 262 246 243 244 222 210 205 200 191 182 177 176 175 173 174 174 174 172 172 174 174 174 176 178 178 178 181 182 185 186 187 189 193 198 208